FW6663 Weather Reports


Display with metric or nautical units.
time (UTC)temp
F
wind
direction
speed
MPH
gust
MPH
rain 1hr
in
rain 24hr
in
rain mn
in
humidity
%
barometer
mb
20260902004541 52 0 0.0 0.0 0.00 0.00 0.00 92 1021.8
20260902003037 51 0 0.0 0.0 0.00 0.00 0.00 91 1022.0
20260902001534 51 0 0.0 0.0 0.00 0.00 0.00 91 1021.8
20260902000035 52 0 0.0 0.0 0.00 0.00 0.00 91 1021.8
20260901234534 52 0 0.0 0.0 0.00 0.00 0.00 90 1021.8
20260901233038 52 0 0.0 0.0 0.00 0.00 0.00 91 1021.9
20260901231537 52 0 0.0 0.0 0.00 0.00 0.00 90 1021.8
20260901230037 53 0 0.0 0.0 0.00 0.00 0.00 89 1022.0
20260901224534 53 0 0.0 0.0 0.00 0.00 0.00 89 1022.0
20260901223038 54 0 0.0 0.0 0.00 0.00 0.00 88 1022.0
20260901221536 54 0 0.0 0.0 0.00 0.00 0.00 87 1022.0
20260901220106 56 0 0.0 0.0 0.00 0.00 0.00 86 1022.1
20260901214535 56 0 0.0 0.0 0.00 0.00 0.00 85 1022.2
20260901213100 57 0 0.0 0.0 0.00 0.00 0.00 83 1022.2
20260901211536 58 0 0.0 0.0 0.00 0.00 0.00 82 1022.4
20260901210044 59 0 0.0 0.0 0.00 0.00 0.00 81 1022.4
20260901204539 59 0 0.0 1.0 0.00 0.00 0.00 81 1022.4
20260901203049 59 0 0.0 1.0 0.00 0.00 0.00 82 1022.4
20260901201534 59 0 0.0 0.0 0.00 0.00 0.00 82 1022.2
20260901200034 59 0 0.0 1.0 0.00 0.00 0.00 82 1022.2
20260901194541 58 0 0.0 0.0 0.00 0.00 0.00 82 1022.2
20260901193046 59 0 0.0 0.0 0.00 0.00 0.00 80 1022.1
20260901191538 60 0 0.0 0.0 0.00 0.00 0.00 77 1021.8
20260901190036 61 0 0.0 1.0 0.00 0.00 0.00 75 1021.8
20260901184534 62 0 0.0 2.0 0.00 0.00 0.00 73 1021.6
20260901183041 62 0 0.0 1.0 0.00 0.00 0.00 72 1021.5
20260901181535 62 0 0.0 1.0 0.00 0.00 0.00 73 1021.4
20260901180036 63 0 0.0 0.0 0.00 0.00 0.00 71 1021.5
20260901174537 64 0.0 0.0 0.00 0.00 0.00 69 1021.6
20260901173049 65 0 0.0 0.0 0.00 0.00 0.00 68 1021.5
20260901171538 66 0.0 0.0 0.00 0.00 0.00 67 1021.6
20260901170034 67 0.0 0.0 0.00 0.00 0.00 65 1021.6
20260901164532 68 0.0 0.0 0.00 0.00 0.00 64 1021.5
20260901163034 68 0.0 0.0 0.00 0.00 0.00 63 1021.4
20260901161538 68 101 0.0 9.0 0.00 0.00 0.00 61 1021.3
20260901160038 68 0 0.0 0.0 0.00 0.00 0.00 60 1021.4
20260901154538 69 0.0 0.0 0.00 0.00 0.00 62 1021.5
20260901153039 69 113 1.0 0.0 0.00 0.00 0.00 60 1021.6
20260901151537 69 0.0 0.0 0.00 0.00 0.00 61 1021.5
20260901150035 70 82 1.0 0.0 0.00 0.00 0.00 61 1021.5
20260901144533 71 82 2.0 0.0 0.00 0.00 0.00 56 1021.6
20260901143043 72 0.0 0.0 0.00 0.00 0.00 55 1021.6
20260901141534 71 0.0 0.0 0.00 0.00 0.00 57 1021.6
20260901140051 70 0.0 0.0 0.00 0.00 0.00 58 1021.5
20260901134540 71 100 3.0 3.0 0.00 0.00 0.00 57 1021.6
20260901133040 70 96 3.0 0.0 0.00 0.00 0.00 60 1021.6
20260901131538 71 0.0 0.0 0.00 0.00 0.00 60 1021.7
20260901130040 71 0.0 0.0 0.00 0.00 0.00 57 1021.8
20260901124534 69 0.0 0.0 0.00 0.00 0.00 66 1021.9
20260901123037 69 0.0 0.0 0.00 0.00 0.00 66 1021.9
20260901121533 71 0.0 0.0 0.00 0.00 0.00 63 1022.0
20260901120050 72 0.0 0.0 0.00 0.00 0.00 61 1021.9
20260901114535 71 0.0 0.0 0.00 0.00 0.00 65 1021.9
20260901113043 71 79 1.0 10.0 0.00 0.00 0.00 67 1021.9
20260901111534 70 79 3.0 8.0 0.00 0.00 0.00 68 1021.8
20260901110043 70 64 0.0 0.0 0.00 0.00 0.00 72 1021.9
20260901104536 70 0.0 0.0 0.00 0.00 0.00 69 1022.1
20260901103037 69 0.0 0.0 0.00 0.00 0.00 73 1021.9
20260901101535 68 0.0 0.0 0.00 0.00 0.00 76 1022.0
20260901100037 66 0.0 0.0 0.00 0.00 0.00 78 1022.1
20260901094539 68 0.0 0.0 0.00 0.00 0.00 75 1022.1
20260901093038 67 0.0 0.0 0.00 0.00 0.00 79 1022.0
20260901091535 66 0.0 0.0 0.00 0.00 0.00 80 1021.9
20260901090036 65 0.0 0.0 0.00 0.00 0.00 82 1021.8
20260901084534 65 0.0 0.0 0.00 0.00 0.00 83 1021.7
20260901083038 64 32 3.0 0.0 0.00 0.00 0.00 83 1021.6
20260901081537 64 0.0 0.0 0.00 0.00 0.00 84 1021.5
20260901080036 63 0.0 0.0 0.00 0.00 0.00 85 1021.4
20260901074535 62 43 3.0 9.0 0.00 0.00 0.00 88 1021.2
20260901073037 60 79 1.0 8.0 0.00 0.00 0.00 88 1021.1
20260901071536 60 87 1.0 7.0 0.00 0.00 0.00 88 1021.1
20260901070037 60 72 2.0 6.0 0.00 0.00 0.00 89 1021.1
20260901064534 60 32 2.0 9.0 0.00 0.00 0.00 89 1020.9
20260901063035 59 77 2.0 7.0 0.00 0.00 0.00 90 1020.9
20260901061534 59 20 1.0 7.0 0.00 0.00 0.00 90 1021.0
20260901060040 59 82 1.0 6.0 0.00 0.00 0.00 90 1020.7
20260901054538 58 97 1.0 5.0 0.00 0.00 0.00 91 1020.6
20260901053052 58 67 1.0 6.0 0.00 0.00 0.00 91 1020.5
20260901051554 58 58 1.0 6.0 0.00 0.00 0.00 90 1020.4
20260901050037 58 0 1.0 6.0 0.00 0.00 0.00 90 1020.2
20260901044537 58 88 2.0 6.0 0.00 0.00 0.00 90 1020.2
20260901043036 58 52 2.0 8.0 0.00 0.00 0.00 90 1020.1
20260901041535 59 107 2.0 7.0 0.00 0.00 0.00 90 1020.0
20260901040049 59 77 2.0 9.0 0.00 0.00 0.00 90 1020.0
20260901034541 59 89 1.0 4.0 0.00 0.00 0.00 90 1019.9
20260901033036 59 57 1.0 9.0 0.00 0.00 0.00 90 1019.8
20260901031535 59 353 2.0 7.0 0.00 0.00 0.00 90 1019.8
20260901030034 59 100 2.0 9.0 0.00 0.00 0.00 90 1019.8
20260901024534 59 109 2.0 7.0 0.00 0.00 0.00 90 1019.8
20260901023048 59 63 2.0 7.0 0.00 0.00 0.00 90 1019.8
20260901021533 58 352 2.0 5.0 0.00 0.00 0.00 90 1019.8
20260901020041 58 60 1.0 3.0 0.00 0.00 0.00 90 1019.7
20260901014544 59 82 2.0 4.0 0.00 0.00 0.00 90 1019.7
20260901013036 59 13 2.0 8.0 0.00 0.00 0.00 89 1019.7
20260901011535 59 74 2.0 6.0 0.00 0.00 0.00 89 1019.6
20260901010036 59 60 2.0 6.0 0.00 0.00 0.00 89 1019.6